Location: U-46 Planetarium
(42.0300°N, 88.2740°W)
Time: 14:29:48
(UTC-05:00)

Cosmos 2263 Rocket - Visible Passes

Search period start: 15 October 2018 00:00
Search period end: 25 October 2018 00:00
Orbit: 824 x 848 km, 71.0° (Epoch: 15 October)

Date Brightness Start Highest point End Pass type
(mag) Time Alt. Az. Time Alt. Az. Time Alt. Az.
15 Oct 4.0 05:24:07 10° N 05:29:05 30° NE 05:34:02 10° ESE visible
15 Oct 3.1 20:14:24 10° S 20:17:22 31° SSE 20:17:22 31° SSE visible
16 Oct 4.1 05:07:28 10° N 05:12:18 28° NE 05:17:08 10° ESE visible
16 Oct 2.3 19:57:44 10° S 20:03:02 47° ESE 20:03:12 47° ESE visible
16 Oct 4.3 21:42:31 10° WSW 21:45:03 21° W 21:45:03 21° W visible
17 Oct 4.2 04:50:47 10° N 04:55:29 26° NE 05:00:12 10° ESE visible
17 Oct 2.4 06:34:14 10° NW 06:39:41 50° WSW 06:45:08 10° S visible
17 Oct 2.4 19:41:05 10° S 19:46:19 43° ESE 19:48:58 26° NE visible
17 Oct 3.9 21:25:37 10° WSW 21:30:23 29° NW 21:30:48 28° NW visible
18 Oct 4.3 04:34:07 10° N 04:38:42 24° NE 04:43:16 10° ESE visible
18 Oct 2.3 06:17:26 10° NNW 06:22:57 54° WSW 06:28:28 10° S visible
18 Oct 2.5 19:24:28 10° S 19:29:36 40° ESE 19:34:31 11° NE visible
18 Oct 3.8 21:08:43 10° WSW 21:13:36 31° NW 21:16:20 21° N visible
19 Oct 4.4 04:17:28 10° N 04:21:54 23° NE 04:26:19 10° ESE visible
19 Oct 2.2 06:00:40 10° NNW 06:06:14 59° WSW 06:11:48 10° S visible
19 Oct 2.7 19:07:51 10° S 19:12:53 36° ESE 19:17:58 10° NE visible
19 Oct 3.7 20:51:49 10° WSW 20:56:48 33° WNW 21:01:28 12° N visible
20 Oct 4.4 04:00:49 10° N 04:05:06 21° NE 04:09:22 10° E visible
20 Oct 2.1 05:43:53 10° NNW 05:49:30 65° WSW 05:55:07 10° S visible
20 Oct 2.8 18:51:16 10° SSE 18:56:11 33° ESE 19:01:08 10° NE visible
20 Oct 3.6 20:34:57 10° WSW 20:40:01 36° WNW 20:45:10 10° N visible
21 Oct 4.5 03:44:32 11° N 03:48:17 20° NE 03:52:22 10° E visible
21 Oct 2.1 05:27:08 10° NNW 05:32:47 71° WSW 05:38:25 10° SSE visible
21 Oct 2.9 18:34:40 10° SSE 18:39:28 31° ESE 18:44:19 10° NE visible
21 Oct 3.5 20:18:05 10° SW 20:23:15 38° WNW 20:28:28 10° N visible
22 Oct 4.5 03:30:17 18° NNE 03:31:28 19° NE 03:35:22 10° E visible
22 Oct 2.0 05:12:08 21° NNW 05:16:03 77° WSW 05:21:43 10° SSE visible
22 Oct 3.1 18:18:06 10° SSE 18:22:46 28° ESE 18:27:29 10° NE visible
22 Oct 3.3 20:01:13 10° SW 20:06:28 41° WNW 20:11:47 10° NNE visible
23 Oct 4.7 03:16:07 16° ENE 03:16:07 16° ENE 03:18:21 10° E visible
23 Oct 2.0 04:57:59 55° NNW 04:59:18 83° WSW 05:04:59 10° SSE visible
23 Oct 3.9 06:41:08 10° W 06:42:17 11° W 06:43:26 10° WSW visible
23 Oct 3.2 19:44:22 10° SW 19:49:42 45° WNW 19:55:05 10° NNE visible
24 Oct 2.5 04:43:46 58° SSE 04:43:46 58° SSE 04:48:16 10° SSE visible
24 Oct 3.9 06:25:37 12° W 06:25:37 12° W 06:27:35 10° WSW visible
24 Oct 3.1 19:27:33 10° SW 19:32:55 49° WNW 19:38:23 10° NNE visible
